Date String (YYYY-MM-DD hh:mm:ss) UTC,Instrument flags,Ambient pressure (hPa),Sample flow (lpm),Bypass flow (lpm),Sample temperature (°C),Ambient temperature (°C),ASC tube jacket temperature (°C),LED temperature (°C),Box temperature (°C),Sample RH (%),Span deviation,Mass concentration (μg/m³),Mass concentration (μg/m³),Mass concentration (μg/m³)
DateTimeUTC,F1_M11,P_M11,Q1_M11,Q2_M11,T1_M11,T2_M11,T3_M11,T4_M11,T5_M11,U1_M11,ZSPAN_M11,X0_M11,X2_M11,X1_M11
2022-03-29 21:00:00,,0809.7,4.99,0.00,27.0,26.3,00.0,35.9,28.9,20.2,0000.0,0003.12,0001.29,0000.79
2022-03-29 21:01:00,,0809.6,5.00,0.00,27.1,26.4,00.0,36.0,28.9,19.6,0000.0,0003.34,0001.36,0000.82
2022-03-29 21:02:00,,0809.7,4.99,0.00,27.1,26.4,00.0,36.0,29.0,20.3,0000.0,0004.73,0001.40,0000.85
2022-03-29 21:03:00,,0809.7,5.02,0.00,27.1,26.5,00.0,36.0,29.0,20.6,0000.0,0004.94,0001.47,0000.87
2022-03-29 21:04:00,,0809.7,4.98,0.00,27.1,26.5,00.0,36.0,29.1,19.6,0000.0,0004.98,0001.49,0000.90
2022-03-29 21:05:00,,0809.7,5.00,0.00,27.2,26.5,00.0,36.0,29.0,19.3,0000.0,0004.91,0001.48,0000.92
2022-03-29 21:06:00,,0809.8,5.01,0.00,27.2,26.5,00.0,36.0,29.0,19.5,0000.0,0005.03,0001.50,0000.93
2022-03-29 21:07:00,,0809.9,5.00,0.00,27.2,26.6,00.0,36.1,29.1,20.0,0000.0,0004.85,0001.51,0000.94
2022-03-29 21:08:00,,0810.0,4.99,0.00,27.2,26.6,00.0,36.1,29.1,20.7,0000.0,0004.28,0001.56,0000.99
2022-03-29 21:09:00,,0810.0,5.01,0.00,27.2,26.5,00.0,36.1,29.0,21.2,0000.0,0004.68,0001.73,0001.14
2022-03-29 21:10:00,,0810.2,4.99,0.00,27.2,26.4,00.0,36.1,29.0,21.7,0000.0,0005.23,0001.98,0001.30
2022-03-29 21:11:00,,0810.2,5.01,0.00,27.2,26.4,00.0,36.1,29.0,21.9,0000.0,0005.77,0002.23,0001.46
2022-03-29 21:12:00,,0810.2,4.98,0.00,27.2,26.4,00.0,36.1,29.0,21.7,0000.0,0006.06,0002.48,0001.64
2022-03-29 21:13:00,,0810.2,5.01,0.00,27.2,26.4,00.0,36.1,29.0,21.8,0000.0,0005.64,0002.87,0001.84
2022-03-29 21:14:00,,0810.2,5.00,0.00,27.2,26.4,00.0,36.1,29.0,21.9,0000.0,0006.23,0003.16,0002.05
2022-03-29 21:15:00,,0810.2,5.01,0.00,27.2,26.4,00.0,36.1,29.0,22.1,0000.0,0006.89,0003.35,0002.22
2022-03-29 21:16:00,,0810.2,5.00,0.00,27.2,26.4,00.0,36.1,29.0,22.1,0000.0,0007.40,0003.52,0002.40
2022-03-29 21:17:00,,0810.3,5.01,0.00,27.2,26.4,00.0,36.1,29.0,21.9,0000.0,0007.73,0003.71,0002.59
2022-03-29 21:18:00,,0810.3,4.99,0.00,27.2,26.4,00.0,36.1,29.0,21.8,0000.0,0008.08,0003.86,0002.76
2022-03-29 21:19:00,,0810.3,4.99,0.00,27.2,26.3,00.0,36.1,28.9,21.9,0000.0,0008.29,0003.98,0002.91
2022-03-29 21:20:00,,0810.3,5.02,0.00,27.2,26.3,00.0,36.2,28.9,21.8,0000.0,0008.44,0004.03,0002.97
2022-03-29 21:21:00,,0810.3,4.99,0.00,27.1,26.3,00.0,36.2,29.0,21.9,0000.0,0008.53,0004.07,0003.03
2022-03-29 21:22:00,,0810.2,5.02,0.00,27.1,26.3,00.0,36.1,28.9,21.9,0000.0,0008.77,0004.10,0003.09
2022-03-29 21:23:00,,0810.3,4.99,0.00,27.1,26.3,00.0,36.1,28.9,22.0,0000.0,0008.92,0004.11,0003.10
2022-03-29 21:24:00,,0810.3,4.99,0.00,27.1,26.3,00.0,36.1,28.9,22.1,0000.0,0008.66,0004.05,0003.10
2022-03-29 21:25:00,,0810.3,5.01,0.00,27.1,26.3,00.0,36.1,28.9,22.3,0000.0,0008.46,0003.99,0003.07
2022-03-29 21:26:00,,0810.3,4.99,0.00,27.1,26.3,00.0,36.1,28.9,22.4,0000.0,0008.31,0003.93,0003.08
2022-03-29 21:27:00,,0810.4,5.00,0.00,27.1,26.3,00.0,36.1,29.0,22.4,0000.0,0008.15,0003.88,0003.08
2022-03-29 21:28:00,,0810.3,5.02,0.00,27.2,26.4,00.0,36.1,29.0,22.6,0000.0,0008.04,0003.83,0003.08
2022-03-29 21:29:00,,0810.4,4.99,0.00,27.2,26.4,00.0,36.2,29.0,22.4,0000.0,0007.93,0003.81,0003.07
2022-03-29 21:30:00,,0810.4,5.00,0.00,27.2,26.4,00.0,36.2,29.0,22.3,0000.0,0007.89,0003.81,0003.03
2022-03-29 21:31:00,,0810.5,5.01,0.00,27.2,26.4,00.0,36.2,29.0,22.2,0000.0,0007.69,0003.80,0003.01
2022-03-29 21:32:00,,0810.5,4.99,0.00,27.2,26.4,00.0,36.2,29.0,22.4,0000.0,0007.62,0003.78,0003.00
2022-03-29 21:33:00,,0810.5,5.01,0.00,27.2,26.4,00.0,36.2,29.0,22.6,0000.0,0007.73,0003.73,0002.96
2022-03-29 21:34:00,,0810.5,4.99,0.00,27.2,26.4,00.0,36.2,29.0,22.6,0000.0,0007.91,0003.69,0002.92
2022-03-29 21:35:00,,0810.5,5.01,0.00,27.2,26.4,00.0,36.2,29.0,22.2,0000.0,0007.87,0003.65,0002.85
2022-03-29 21:36:00,,0810.5,4.99,0.00,27.2,26.4,00.0,36.2,29.1,22.0,0000.0,0007.93,0003.64,0002.80
2022-03-29 21:37:00,,0810.5,5.02,0.00,27.2,26.4,00.0,36.2,29.1,22.0,0000.0,0007.96,0003.64,0002.76
2022-03-29 21:38:00,,0810.5,4.98,0.00,27.2,26.4,00.0,36.2,29.1,22.0,0000.0,0008.07,0003.67,0002.75
2022-03-29 21:39:00,,0810.5,5.01,0.00,27.3,26.4,00.0,36.2,29.1,22.0,0000.0,0008.05,0003.66,0002.73
2022-03-29 21:40:00,,0810.5,5.00,0.00,27.3,26.4,00.0,36.2,29.1,21.9,0000.0,0008.03,0003.64,0002.72
2022-03-29 21:41:00,,0810.6,5.00,0.00,27.2,26.3,00.0,36.2,29.1,21.9,0000.0,0008.17,0003.65,0002.75
2022-03-29 21:42:00,,0810.5,5.00,0.00,27.3,26.4,00.0,36.2,29.1,21.8,0000.0,0008.27,0003.67,0002.79
2022-03-29 21:43:00,,0810.6,4.99,0.00,27.3,26.4,00.0,36.2,29.1,21.7,0000.0,0008.27,0003.67,0002.79
2022-03-29 21:44:00,,0810.5,5.02,0.00,27.3,26.4,00.0,36.2,29.1,21.4,0000.0,0008.10,0003.70,0002.84
2022-03-29 21:45:00,,0810.6,4.99,0.00,27.3,26.4,00.0,36.2,29.1,21.4,0000.0,0007.48,0003.75,0002.89
2022-03-29 21:46:00,,0810.6,5.01,0.00,27.3,26.4,00.0,36.2,29.1,21.5,0000.0,0007.49,0003.78,0002.98
2022-03-29 21:47:00,,0810.6,5.01,0.00,27.3,26.4,00.0,36.2,29.1,21.4,0000.0,0007.57,0003.81,0003.08
2022-03-29 21:48:00,,0810.5,4.99,0.00,27.3,26.4,00.0,36.2,29.1,21.5,0000.0,0007.56,0003.83,0003.14
2022-03-29 21:49:00,,0810.5,5.02,0.00,27.3,26.4,00.0,36.2,29.1,21.3,0000.0,0007.54,0003.86,0003.18
2022-03-29 21:50:00,,0810.5,4.98,0.00,27.3,26.4,00.0,36.2,29.1,21.3,0000.0,0007.61,0003.92,0003.23
2022-03-29 21:51:00,,0810.5,5.00,0.00,27.3,26.4,00.0,36.2,29.1,21.4,0000.0,0007.85,0004.02,0003.28
2022-03-29 21:52:00,,0810.5,5.01,0.00,27.3,26.3,00.0,36.2,29.1,21.4,0000.0,0007.83,0004.10,0003.33
2022-03-29 21:53:00,,0810.6,4.99,0.00,27.3,26.3,00.0,36.2,29.1,21.3,0000.0,0007.81,0004.13,0003.37
2022-03-29 21:54:00,,0810.6,5.00,0.00,27.3,26.4,00.0,36.2,29.1,21.3,0000.0,0008.13,0004.19,0003.42
2022-03-29 21:55:00,,0810.6,5.01,0.00,27.3,26.4,00.0,36.2,29.1,21.4,0000.0,0008.35,0004.26,0003.46
2022-03-29 21:56:00,,0810.6,4.98,0.00,27.3,26.4,00.0,36.2,29.1,21.3,0000.0,0008.40,0004.29,0003.51
2022-03-29 21:57:00,,0810.6,5.01,0.00,27.3,26.4,00.0,36.2,29.1,21.1,0000.0,0008.49,0004.34,0003.53
2022-03-29 21:58:00,,0810.6,5.00,0.00,27.3,26.4,00.0,36.2,29.1,21.0,0000.0,0008.56,0004.39,0003.56
2022-03-29 21:59:00,,0810.7,4.98,0.00,27.3,26.4,00.0,36.3,29.1,21.1,0000.0,0008.77,0004.48,0003.59
